| time (UTC) | temp C | wind direction | speed KPH | gust KPH | rain 1hr cm | rain 24hr cm | rain mn cm | humidity % | barometer mb |
| 20260510190535 | 23 | 332 | 1.6 | 12.9 | 0.00 | 0.00 | 0.00 | 61 | 1013.5 |
| 20260510190037 | 23 | 325 | 1.6 | 12.9 | 0.00 | 0.00 | 0.00 | 62 | 1013.5 |
| 20260510185534 | 23 | 322 | 3.2 | 9.7 | 0.00 | 0.00 | 0.00 | 60 | 1013.5 |
| 20260510185034 | 23 | 348 | 0.0 | 14.5 | 0.00 | 0.00 | 0.00 | 62 | 1013.4 |
| 20260510184535 | 23 | 326 | 1.6 | 12.9 | 0.00 | 0.00 | 0.00 | 59 | 1013.4 |
| 20260510184033 | 23 | 322 | 3.2 | 20.9 | 0.00 | 0.00 | 0.00 | 58 | 1013.5 |
| 20260510183533 | 24 | 348 | 6.4 | 20.9 | 0.00 | 0.00 | 0.00 | 58 | 1013.5 |
| 20260510183037 | 23 | 15 | 1.6 | 12.9 | 0.00 | 0.00 | 0.00 | 61 | 1013.6 |
| 20260510182533 | 23 | 306 | 1.6 | 8.0 | 0.00 | 0.00 | 0.00 | 60 | 1013.5 |
| 20260510182032 | 23 | 323 | 3.2 | 9.7 | 0.00 | 0.00 | 0.00 | 58 | 1013.5 |
| 20260510181540 | 24 | 313 | 3.2 | 9.7 | 0.00 | 0.00 | 0.00 | 56 | 1013.4 |
| 20260510181031 | 25 | 228 | 0.0 | 8.0 | 0.00 | 0.00 | 0.00 | 64 | 1013.4 |
| 20260510180531 | 24 | 347 | 1.6 | 17.7 | 0.00 | 0.00 | 0.00 | 58 | 1013.4 |
| 20260510180028 | 24 | 20 | 3.2 | 17.7 | 0.00 | 0.00 | 0.00 | 58 | 1013.4 |
| 20260510175528 | 23 | 360 | 4.8 | 14.5 | 0.00 | 0.00 | 0.00 | 59 | 1013.4 |
| 20260510175026 | 23 | 328 | 0.0 | 12.9 | 0.00 | 0.00 | 0.00 | 60 | 1013.4 |
| 20260510174525 | 23 | 18 | 1.6 | 12.9 | 0.00 | 0.00 | 0.00 | 60 | 1013.4 |
| 20260510174024 | 23 | 32 | 1.6 | 9.7 | 0.00 | 0.00 | 0.00 | 61 | 1013.4 |
| 20260510173522 | 22 | 301 | 0.0 | 8.0 | 0.00 | 0.00 | 0.00 | 63 | 1013.6 |
| 20260510173024 | 22 | 327 | 0.0 | 4.8 | 0.00 | 0.00 | 0.00 | 63 | 1013.7 |
| 20260510172520 | 22 | 332 | 0.0 | 8.0 | 0.00 | 0.00 | 0.00 | 59 | 1013.7 |
| 20260510172020 | 22 | 325 | 3.2 | 16.1 | 0.00 | 0.00 | 0.00 | 63 | 1013.6 |
| 20260510171522 | 22 | 360 | 4.8 | 16.1 | 0.00 | 0.00 | 0.00 | 64 | 1013.7 |
| 20260510171019 | 22 | 327 | 4.8 | 14.5 | 0.00 | 0.00 | 0.00 | 60 | 1013.7 |
| 20260510170519 | 22 | 341 | 3.2 | 9.7 | 0.00 | 0.00 | 0.00 | 63 | 1013.6 |
| 20260510170021 | 21 | 344 | 0.0 | 4.8 | 0.00 | 0.00 | 0.00 | 63 | 1013.6 |
| 20260510165520 | 21 | 15 | 0.0 | 4.8 | 0.00 | 0.00 | 0.00 | 62 | 1013.8 |
| 20260510165021 | 21 | 348 | 0.0 | 4.8 | 0.00 | 0.00 | 0.00 | 63 | 1013.7 |
| 20260510164525 | 21 | 350 | 0.0 | 9.7 | 0.00 | 0.00 | 0.00 | 63 | 1013.6 |
| 20260510164018 | 21 | 329 | 3.2 | 19.3 | 0.00 | 0.00 | 0.00 | 61 | 1013.6 |
| 20260510163518 | 22 | 337 | 8.0 | 19.3 | 0.00 | 0.00 | 0.00 | 60 | 1013.6 |
| 20260510163020 | 22 | 349 | 1.6 | 14.5 | 0.00 | 0.00 | 0.00 | 65 | 1013.6 |
| 20260510162518 | 22 | 317 | 4.8 | 14.5 | 0.00 | 0.00 | 0.00 | 59 | 1013.6 |
| 20260510162018 | 22 | 346 | 0.0 | 9.7 | 0.00 | 0.00 | 0.00 | 59 | 1013.5 |
| 20260510161516 | 22 | 319 | 1.6 | 9.7 | 0.00 | 0.00 | 0.00 | 65 | 1013.4 |
| 20260510161017 | 22 | 300 | 0.0 | 8.0 | 0.00 | 0.00 | 0.00 | 61 | 1013.6 |
| 20260510160516 | 22 | 304 | 0.0 | 8.0 | 0.00 | 0.00 | 0.00 | 61 | 1013.6 |
| 20260510160014 | 21 | 268 | 0.0 | 1.6 | 0.00 | 0.00 | 0.00 | 63 | 1013.6 |
| 20260510155517 | 21 | 272 | 0.0 | 0.0 | 0.00 | 0.00 | 0.00 | 65 | 1013.6 |
| 20260510155014 | 21 | 267 | 0.0 | 4.8 | 0.00 | 0.00 | 0.00 | 61 | 1013.5 |
| 20260510154513 | 21 | 266 | 0.0 | 6.4 | 0.00 | 0.00 | 0.00 | 62 | 1013.5 |
| 20260510154014 | 21 | 341 | 0.0 | 6.4 | 0.00 | 0.00 | 0.00 | 62 | 1013.5 |
| 20260510153514 | 21 | 355 | 0.0 | 6.4 | 0.00 | 0.00 | 0.00 | 62 | 1013.6 |
| 20260510153013 | 21 | 280 | 0.0 | 1.6 | 0.00 | 0.00 | 0.00 | 61 | 1013.5 |
| 20260510152513 | 21 | 286 | 0.0 | 6.4 | 0.00 | 0.00 | 0.00 | 61 | 1013.5 |
| 20260510152013 | 22 | 293 | 0.0 | 8.0 | 0.00 | 0.00 | 0.00 | 61 | 1013.4 |
| 20260510151512 | 22 | 301 | 0.0 | 4.8 | 0.00 | 0.00 | 0.00 | 60 | 1013.2 |
| 20260510151014 | 22 | 185 | 0.0 | 4.8 | 0.00 | 0.00 | 0.00 | 60 | 1013.1 |
| 20260510150512 | 22 | 270 | 0.0 | 8.0 | 0.00 | 0.00 | 0.00 | 61 | 1012.9 |
| 20260510150012 | 22 | 238 | 1.6 | 9.7 | 0.00 | 0.00 | 0.00 | 60 | 1012.9 |
| 20260510145511 | 22 | 325 | 1.6 | 9.7 | 0.00 | 0.00 | 0.00 | 61 | 1013.1 |
| 20260510145010 | 22 | 247 | 0.0 | 6.4 | 0.00 | 0.00 | 0.00 | 64 | 1013.3 |
| 20260510144515 | 22 | 292 | 0.0 | 8.0 | 0.00 | 0.00 | 0.00 | 62 | 1013.4 |
| 20260510144009 | 22 | 293 | 1.6 | 8.0 | 0.00 | 0.00 | 0.00 | 64 | 1013.3 |
| 20260510143508 | 21 | 293 | 0.0 | 11.3 | 0.00 | 0.00 | 0.00 | 64 | 1013.2 |
| 20260510143009 | 21 | 191 | 0.0 | 11.3 | 0.00 | 0.00 | 0.00 | 61 | 1013.1 |
| 20260510142507 | 21 | 183 | 0.0 | 12.9 | 0.00 | 0.00 | 0.00 | 64 | 1013.2 |
| 20260510142007 | 21 | 121 | 1.6 | 9.7 | 0.00 | 0.00 | 0.00 | 64 | 1013.2 |
| 20260510141506 | 21 | 150 | 0.0 | 14.5 | 0.00 | 0.00 | 0.00 | 64 | 1013.3 |
| 20260510141007 | 21 | 78 | 3.2 | 14.5 | 0.00 | 0.00 | 0.00 | 62 | 1013.4 |
| 20260510140503 | 20 | 160 | 0.0 | 8.0 | 0.00 | 0.00 | 0.00 | 67 | 1013.5 |
| 20260510140002 | 20 | 151 | 0.0 | 8.0 | 0.00 | 0.00 | 0.00 | 69 | 1013.6 |
| 20260510135502 | 19 | 300 | 0.0 | 3.2 | 0.00 | 0.00 | 0.00 | 72 | 1013.6 |
| 20260510135100 | 19 | 300 | 0.0 | 3.2 | 0.00 | 0.00 | 0.00 | 69 | 1013.5 |
| 20260510134601 | 19 | 345 | 0.0 | 4.8 | 0.00 | 0.00 | 0.00 | 69 | 1013.6 |
| 20260510134100 | 20 | 360 | 0.0 | 6.4 | 0.00 | 0.00 | 0.00 | 68 | 1013.6 |
| 20260510133559 | 20 | 229 | 0.0 | 6.4 | 0.00 | 0.00 | 0.00 | 69 | 1013.6 |
| 20260510133059 | 19 | 78 | 0.0 | 4.8 | 0.00 | 0.00 | 0.00 | 74 | 1013.3 |
| 20260510132558 | 19 | 78 | 0.0 | 4.8 | 0.00 | 0.00 | 0.00 | 72 | 1013.6 |
| 20260510132057 | 19 | 135 | 0.0 | 1.6 | 0.00 | 0.00 | 0.00 | 75 | 1013.5 |
| 20260510131559 | 18 | 136 | 0.0 | 1.6 | 0.00 | 0.00 | 0.00 | 77 | 1013.5 |
| 20260510131054 | 18 | 140 | 0.0 | 1.6 | 0.00 | 0.00 | 0.00 | 80 | 1013.4 |
| 20260510130553 | 17 | 140 | 0.0 | 0.0 | 0.00 | 0.00 | 0.00 | 83 | 1013.3 |
| 20260510130051 | 17 | 141 | 0.0 | 1.6 | 0.00 | 0.00 | 0.00 | 83 | 1013.3 |
| 20260510125549 | 16 | 141 | 0.0 | 1.6 | 0.00 | 0.00 | 0.00 | 83 | 1013.4 |
| 20260510125048 | 16 | 142 | 0.0 | 1.6 | 0.00 | 0.00 | 0.00 | 84 | 1013.6 |
| 20260510124555 | 16 | 142 | 0.0 | 1.6 | 0.00 | 0.00 | 0.00 | 87 | 1013.5 |
| 20260510124046 | 16 | 142 | 0.0 | 0.0 | 0.00 | 0.00 | 0.00 | 87 | 1013.4 |
| 20260510123545 | 15 | 142 | 0.0 | 0.0 | 0.00 | 0.00 | 0.00 | 90 | 1013.2 |
| 20260510123043 | 15 | 142 | 0.0 | 0.0 | 0.00 | 0.00 | 0.00 | 90 | 1013.2 |
| 20260510122542 | 14 | 142 | 0.0 | 0.0 | 0.00 | 0.00 | 0.00 | 90 | 1013.5 |
| 20260510122041 | 15 | 143 | 0.0 | 0.0 | 0.00 | 0.00 | 0.00 | 92 | 1013.1 |
| 20260510121540 | 14 | 146 | 0.0 | 0.0 | 0.00 | 0.00 | 0.00 | 94 | 1013.4 |
| 20260510121039 | 13 | 146 | 0.0 | 0.0 | 0.00 | 0.00 | 0.00 | 95 | 1013.3 |
| 20260510120537 | 13 | 146 | 0.0 | 0.0 | 0.00 | 0.00 | 0.00 | 96 | 1013.3 |
| 20260510120035 | 13 | 146 | 0.0 | 0.0 | 0.00 | 0.00 | 0.00 | 96 | 1013.0 |
| 20260510115534 | 12 | 146 | 0.0 | 0.0 | 0.00 | 0.00 | 0.00 | 96 | 1013.1 |
| 20260510115034 | 12 | 146 | 0.0 | 0.0 | 0.00 | 0.00 | 0.00 | 96 | 1013.1 |
| 20260510114531 | 12 | 146 | 0.0 | 0.0 | 0.00 | 0.00 | 0.00 | 96 | 1012.8 |
| 20260510114029 | 11 | 146 | 0.0 | 0.0 | 0.00 | 0.00 | 0.00 | 97 | 1012.7 |
| 20260510113528 | 11 | 146 | 0.0 | 0.0 | 0.00 | 0.00 | 0.00 | 97 | 1012.7 |
| 20260510113028 | 11 | 146 | 0.0 | 0.0 | 0.00 | 0.00 | 0.00 | 96 | 1012.7 |
| 20260510112529 | 10 | 146 | 0.0 | 0.0 | 0.00 | 0.00 | 0.00 | 96 | 1012.6 |
| 20260510112025 | 10 | 146 | 0.0 | 0.0 | 0.00 | 0.00 | 0.00 | 96 | 1012.6 |
| 20260510111524 | 10 | 146 | 0.0 | 0.0 | 0.00 | 0.00 | 0.00 | 96 | 1012.5 |
| 20260510111024 | 10 | 146 | 0.0 | 0.0 | 0.00 | 0.00 | 0.00 | 96 | 1012.4 |
| 20260510110522 | 10 | 146 | 0.0 | 0.0 | 0.00 | 0.00 | 0.00 | 96 | 1012.4 |
| 20260510110020 | 10 | 146 | 0.0 | 0.0 | 0.00 | 0.00 | 0.00 | 96 | 1012.4 |
| 20260510105520 | 10 | 146 | 0.0 | 0.0 | 0.00 | 0.00 | 0.00 | 96 | 1012.1 |
| 20260510105020 | 10 | 146 | 0.0 | 0.0 | 0.00 | 0.00 | 0.00 | 96 | 1012.1 |
| 20260510104518 | 10 | 146 | 0.0 | 0.0 | 0.00 | 0.00 | 0.00 | 96 | 1012.1 |
| 20260510104018 | 10 | 146 | 0.0 | 0.0 | 0.00 | 0.00 | 0.00 | 96 | 1012.0 |
| 20260510103518 | 9 | 146 | 0.0 | 0.0 | 0.00 | 0.00 | 0.00 | 96 | 1011.9 |
| 20260510103017 | 9 | 146 | 0.0 | 0.0 | 0.00 | 0.00 | 0.00 | 96 | 1011.9 |
| 20260510102517 | 9 | 146 | 0.0 | 0.0 | 0.00 | 0.00 | 0.00 | 96 | 1011.9 |
| 20260510102016 | 10 | 146 | 0.0 | 0.0 | 0.00 | 0.00 | 0.00 | 96 | 1011.8 |
| 20260510101515 | 9 | 146 | 0.0 | 0.0 | 0.00 | 0.00 | 0.00 | 95 | 1011.8 |
| 20260510101015 | 10 | 146 | 0.0 | 0.0 | 0.00 | 0.00 | 0.00 | 96 | 1011.9 |
| 20260510100516 | 10 | 146 | 0.0 | 0.0 | 0.00 | 0.00 | 0.00 | 96 | 1012.0 |
| 20260510100014 | 10 | 146 | 0.0 | 0.0 | 0.00 | 0.00 | 0.00 | 95 | 1011.9 |
| 20260510095519 | 10 | 146 | 0.0 | 0.0 | 0.00 | 0.00 | 0.00 | 95 | 1011.7 |
| 20260510095014 | 10 | 146 | 0.0 | 0.0 | 0.00 | 0.00 | 0.00 | 95 | 1011.5 |
| 20260510094529 | 10 | 146 | 0.0 | 0.0 | 0.00 | 0.00 | 0.00 | 96 | 1011.4 |
| 20260510094012 | 10 | 146 | 0.0 | 0.0 | 0.00 | 0.00 | 0.00 | 96 | 1011.4 |
| 20260510093510 | 10 | 146 | 0.0 | 0.0 | 0.00 | 0.00 | 0.00 | 95 | 1011.4 |
| 20260510093011 | 10 | 146 | 0.0 | 0.0 | 0.00 | 0.00 | 0.00 | 95 | 1011.4 |
| 20260510092515 | 10 | 146 | 0.0 | 0.0 | 0.00 | 0.00 | 0.00 | 96 | 1011.3 |
| 20260510092009 | 10 | 146 | 0.0 | 0.0 | 0.00 | 0.00 | 0.00 | 95 | 1011.3 |
| 20260510091510 | 10 | 146 | 0.0 | 0.0 | 0.00 | 0.00 | 0.00 | 95 | 1011.2 |
| 20260510091009 | 10 | 146 | 0.0 | 0.0 | 0.00 | 0.00 | 0.00 | 95 | 1011.2 |
| 20260510090508 | 10 | 146 | 0.0 | 0.0 | 0.00 | 0.00 | 0.00 | 96 | 1011.2 |
| 20260510090008 | 10 | 146 | 0.0 | 0.0 | 0.00 | 0.00 | 0.00 | 95 | 1011.2 |
| 20260510085506 | 10 | 146 | 0.0 | 0.0 | 0.00 | 0.00 | 0.00 | 95 | 1011.1 |
| 20260510085007 | 10 | 146 | 0.0 | 0.0 | 0.00 | 0.00 | 0.00 | 95 | 1011.1 |
| 20260510084514 | 10 | 146 | 0.0 | 0.0 | 0.00 | 0.00 | 0.00 | 95 | 1011.0 |
| 20260510084005 | 10 | 146 | 0.0 | 0.0 | 0.00 | 0.00 | 0.00 | 95 | 1011.0 |
| 20260510083506 | 10 | 146 | 0.0 | 0.0 | 0.00 | 0.00 | 0.00 | 95 | 1010.8 |
| 20260510083004 | 10 | 146 | 0.0 | 0.0 | 0.00 | 0.00 | 0.00 | 95 | 1010.8 |
| 20260510082504 | 10 | 146 | 0.0 | 0.0 | 0.00 | 0.00 | 0.00 | 95 | 1010.8 |
| 20260510082008 | 10 | 146 | 0.0 | 0.0 | 0.00 | 0.00 | 0.00 | 95 | 1010.8 |
| 20260510081505 | 10 | 146 | 0.0 | 0.0 | 0.00 | 0.00 | 0.00 | 95 | 1010.7 |
| 20260510081004 | 10 | 146 | 0.0 | 0.0 | 0.00 | 0.00 | 0.00 | 95 | 1010.6 |
| 20260510080504 | 10 | 146 | 0.0 | 0.0 | 0.00 | 0.00 | 0.00 | 96 | 1010.7 |
| 20260510080015 | 10 | 146 | 0.0 | 0.0 | 0.00 | 0.00 | 0.00 | 95 | 1010.7 |
| 20260510075502 | 10 | 146 | 0.0 | 0.0 | 0.00 | 0.00 | 0.00 | 95 | 1010.6 |
| 20260510075005 | 10 | 146 | 0.0 | 0.0 | 0.00 | 0.00 | 0.00 | 95 | 1010.7 |
| 20260510074502 | 10 | 146 | 0.0 | 0.0 | 0.00 | 0.00 | 0.00 | 95 | 1010.6 |
| 20260510074002 | 10 | 146 | 0.0 | 0.0 | 0.00 | 0.00 | 0.00 | 95 | 1010.5 |
| 20260510073501 | 10 | 146 | 0.0 | 0.0 | 0.00 | 0.00 | 0.00 | 95 | 1010.5 |
| 20260510073003 | 10 | 146 | 0.0 | 0.0 | 0.00 | 0.00 | 0.00 | 95 | 1010.5 |
| 20260510072600 | 10 | 146 | 0.0 | 0.0 | 0.00 | 0.00 | 0.00 | 95 | 1010.5 |
| 20260510072100 | 10 | 146 | 0.0 | 0.0 | 0.00 | 0.00 | 0.00 | 95 | 1010.6 |
| 20260510071600 | 10 | 146 | 0.0 | 0.0 | 0.00 | 0.00 | 0.00 | 95 | 1010.6 |
| 20260510071058 | 10 | 146 | 0.0 | 0.0 | 0.00 | 0.00 | 0.00 | 95 | 1010.5 |
| 20260510070558 | 10 | 146 | 0.0 | 0.0 | 0.00 | 0.00 | 0.00 | 95 | 1010.5 |
| 20260510070058 | 10 | 146 | 0.0 | 0.0 | 0.00 | 0.00 | 0.00 | 95 | 1010.5 |
| 20260510065557 | 10 | 146 | 0.0 | 0.0 | 0.00 | 0.00 | 0.00 | 95 | 1010.5 |
| 20260510065056 | 10 | 146 | 0.0 | 0.0 | 0.00 | 0.00 | 0.00 | 95 | 1010.6 |
| 20260510064604 | 10 | 146 | 0.0 | 0.0 | 0.00 | 0.00 | 0.00 | 95 | 1010.8 |
| 20260510064056 | 10 | 146 | 0.0 | 0.0 | 0.00 | 0.00 | 0.00 | 94 | 1010.7 |
| 20260510063556 | 10 | 146 | 0.0 | 0.0 | 0.00 | 0.00 | 0.00 | 94 | 1010.7 |
| 20260510063056 | 11 | 146 | 0.0 | 0.0 | 0.00 | 0.00 | 0.00 | 95 | 1010.7 |
| 20260510062557 | 11 | 146 | 0.0 | 0.0 | 0.00 | 0.00 | 0.00 | 94 | 1010.7 |
| 20260510062055 | 11 | 146 | 0.0 | 0.0 | 0.00 | 0.00 | 0.00 | 94 | 1010.9 |
| 20260510061559 | 11 | 146 | 0.0 | 0.0 | 0.00 | 0.00 | 0.00 | 94 | 1010.8 |
| 20260510061055 | 11 | 146 | 0.0 | 0.0 | 0.00 | 0.00 | 0.00 | 94 | 1010.8 |
| 20260510060556 | 11 | 146 | 0.0 | 0.0 | 0.00 | 0.00 | 0.00 | 94 | 1010.8 |
| 20260510060056 | 11 | 146 | 0.0 | 0.0 | 0.00 | 0.00 | 0.00 | 94 | 1010.7 |
| 20260510055557 | 11 | 146 | 0.0 | 0.0 | 0.00 | 0.00 | 0.00 | 94 | 1010.8 |
| 20260510055054 | 11 | 146 | 0.0 | 0.0 | 0.00 | 0.00 | 0.00 | 94 | 1010.7 |
| 20260510054554 | 11 | 146 | 0.0 | 0.0 | 0.00 | 0.00 | 0.00 | 94 | 1010.6 |
| 20260510054053 | 11 | 146 | 0.0 | 0.0 | 0.00 | 0.00 | 0.00 | 94 | 1010.8 |
| 20260510053553 | 11 | 146 | 0.0 | 0.0 | 0.00 | 0.00 | 0.00 | 94 | 1010.9 |
| 20260510053054 | 11 | 146 | 0.0 | 0.0 | 0.00 | 0.00 | 0.00 | 94 | 1010.8 |
| 20260510052556 | 11 | 146 | 0.0 | 0.0 | 0.00 | 0.00 | 0.00 | 94 | 1010.8 |
| 20260510052052 | 11 | 146 | 0.0 | 0.0 | 0.00 | 0.00 | 0.00 | 94 | 1010.7 |
| 20260510051601 | 11 | 146 | 0.0 | 0.0 | 0.00 | 0.00 | 0.00 | 94 | 1010.7 |
| 20260510051051 | 11 | 146 | 0.0 | 0.0 | 0.00 | 0.00 | 0.00 | 94 | 1010.7 |
| 20260510050555 | 11 | 146 | 0.0 | 0.0 | 0.00 | 0.00 | 0.00 | 94 | 1010.9 |
| 20260510050055 | 11 | 146 | 0.0 | 0.0 | 0.00 | 0.00 | 0.00 | 94 | 1011.1 |
| 20260510045549 | 11 | 146 | 0.0 | 0.0 | 0.00 | 0.00 | 0.00 | 94 | 1011.1 |
| 20260510045049 | 11 | 146 | 0.0 | 0.0 | 0.00 | 0.00 | 0.00 | 94 | 1010.9 |
| 20260510044600 | 11 | 146 | 0.0 | 0.0 | 0.00 | 0.00 | 0.00 | 93 | 1010.9 |
| 20260510044049 | 11 | 146 | 0.0 | 0.0 | 0.00 | 0.00 | 0.00 | 93 | 1010.9 |
| 20260510043548 | 11 | 146 | 0.0 | 0.0 | 0.00 | 0.00 | 0.00 | 93 | 1011.0 |
| 20260510043049 | 11 | 146 | 0.0 | 0.0 | 0.00 | 0.00 | 0.00 | 93 | 1010.9 |
| 20260510042551 | 11 | 146 | 0.0 | 0.0 | 0.00 | 0.00 | 0.00 | 93 | 1011.0 |
| 20260510042046 | 11 | 146 | 0.0 | 0.0 | 0.00 | 0.00 | 0.00 | 93 | 1011.0 |
| 20260510041546 | 11 | 146 | 0.0 | 0.0 | 0.00 | 0.00 | 0.00 | 93 | 1011.0 |
| 20260510041046 | 11 | 146 | 0.0 | 0.0 | 0.00 | 0.00 | 0.00 | 92 | 1010.9 |
| 20260510040545 | 11 | 146 | 0.0 | 0.0 | 0.00 | 0.00 | 0.00 | 92 | 1010.8 |
| 20260510040047 | 11 | 146 | 0.0 | 0.0 | 0.00 | 0.00 | 0.00 | 92 | 1010.9 |
| 20260510035542 | 11 | 146 | 0.0 | 0.0 | 0.00 | 0.00 | 0.00 | 92 | 1011.1 |
| 20260510035044 | 11 | 146 | 0.0 | 0.0 | 0.00 | 0.00 | 0.00 | 92 | 1010.9 |
| 20260510034543 | 11 | 146 | 0.0 | 0.0 | 0.00 | 0.00 | 0.00 | 91 | 1011.0 |
| 20260510034042 | 12 | 146 | 0.0 | 0.0 | 0.00 | 0.00 | 0.00 | 91 | 1010.9 |
| 20260510033541 | 12 | 146 | 0.0 | 0.0 | 0.00 | 0.00 | 0.00 | 91 | 1010.8 |
| 20260510033041 | 12 | 146 | 0.0 | 0.0 | 0.00 | 0.00 | 0.00 | 91 | 1010.8 |
| 20260510032543 | 12 | 146 | 0.0 | 0.0 | 0.00 | 0.00 | 0.00 | 91 | 1010.8 |
| 20260510032041 | 12 | 146 | 0.0 | 0.0 | 0.00 | 0.00 | 0.00 | 90 | 1010.8 |
| 20260510031541 | 12 | 146 | 0.0 | 0.0 | 0.00 | 0.00 | 0.00 | 90 | 1010.8 |
| 20260510031040 | 12 | 146 | 0.0 | 0.0 | 0.00 | 0.00 | 0.00 | 90 | 1010.7 |
| 20260510030539 | 12 | 146 | 0.0 | 0.0 | 0.00 | 0.00 | 0.00 | 90 | 1010.7 |
| 20260510030050 | 12 | 146 | 0.0 | 0.0 | 0.00 | 0.00 | 0.00 | 89 | 1010.6 |
| 20260510025538 | 12 | 146 | 0.0 | 0.0 | 0.00 | 0.00 | 0.00 | 89 | 1010.6 |
| 20260510025038 | 12 | 146 | 0.0 | 0.0 | 0.00 | 0.00 | 0.00 | 89 | 1010.4 |
| 20260510024538 | 12 | 146 | 0.0 | 0.0 | 0.00 | 0.00 | 0.00 | 89 | 1010.5 |
| 20260510024036 | 12 | 146 | 0.0 | 0.0 | 0.00 | 0.00 | 0.00 | 88 | 1010.4 |
| 20260510023536 | 13 | 146 | 0.0 | 0.0 | 0.00 | 0.00 | 0.00 | 88 | 1010.4 |
| 20260510023139 | 13 | 146 | 0.0 | 0.0 | 0.00 | 0.00 | 0.00 | 88 | 1010.3 |
| 20260510022540 | 13 | 146 | 0.0 | 0.0 | 0.00 | 0.00 | 0.00 | 87 | 1010.2 |
| 20260510022034 | 13 | 146 | 0.0 | 0.0 | 0.00 | 0.00 | 0.00 | 89 | 1010.1 |
| 20260510021535 | 13 | 146 | 0.0 | 0.0 | 0.00 | 0.00 | 0.00 | 86 | 1010.0 |
| 20260510021034 | 13 | 146 | 0.0 | 0.0 | 0.00 | 0.00 | 0.00 | 85 | 1009.9 |
| 20260510020535 | 13 | 146 | 0.0 | 0.0 | 0.00 | 0.00 | 0.00 | 85 | 1009.8 |
| 20260510020033 | 13 | 146 | 0.0 | 0.0 | 0.00 | 0.00 | 0.00 | 85 | 1009.8 |
| 20260510015533 | 13 | 146 | 0.0 | 0.0 | 0.00 | 0.00 | 0.00 | 84 | 1009.7 |
| 20260510015132 | 14 | 146 | 0.0 | 0.0 | 0.00 | 0.00 | 0.00 | 84 | 1009.8 |
| 20260510014535 | 14 | 146 | 0.0 | 0.0 | 0.00 | 0.00 | 0.00 | 84 | 1009.6 |
| 20260510014032 | 14 | 146 | 0.0 | 0.0 | 0.00 | 0.00 | 0.00 | 84 | 1009.6 |
| 20260510013533 | 14 | 146 | 0.0 | 0.0 | 0.00 | 0.00 | 0.00 | 84 | 1009.4 |
| 20260510013033 | 14 | 146 | 0.0 | 0.0 | 0.00 | 0.00 | 0.00 | 83 | 1009.3 |
| 20260510012534 | 14 | 146 | 0.0 | 0.0 | 0.00 | 0.00 | 0.00 | 82 | 1009.2 |
| 20260510012032 | 15 | 146 | 0.0 | 0.0 | 0.00 | 0.00 | 0.00 | 82 | 1009.2 |
| 20260510011532 | 15 | 146 | 0.0 | 0.0 | 0.00 | 0.00 | 0.00 | 82 | 1009.2 |
| 20260510011031 | 15 | 146 | 0.0 | 0.0 | 0.00 | 0.00 | 0.00 | 81 | 1009.0 |
| 20260510010531 | 15 | 146 | 0.0 | 0.0 | 0.00 | 0.00 | 0.00 | 80 | 1009.0 |
| 20260510010031 | 15 | 146 | 0.0 | 0.0 | 0.00 | 0.00 | 0.00 | 80 | 1008.9 |
| 20260510005531 | 15 | 146 | 0.0 | 0.0 | 0.00 | 0.00 | 0.00 | 80 | 1008.8 |
| 20260510005033 | 15 | 146 | 0.0 | 0.0 | 0.00 | 0.00 | 0.00 | 79 | 1008.7 |
| 20260510004530 | 16 | 146 | 0.0 | 0.0 | 0.00 | 0.00 | 0.00 | 78 | 1008.8 |
| 20260510004030 | 16 | 146 | 0.0 | 0.0 | 0.00 | 0.00 | 0.00 | 77 | 1008.6 |
| 20260510003531 | 16 | 146 | 0.0 | 0.0 | 0.00 | 0.00 | 0.00 | 76 | 1008.6 |
| 20260510003037 | 17 | 146 | 0.0 | 0.0 | 0.00 | 0.00 | 0.00 | 75 | 1008.5 |
| 20260510002530 | 17 | 146 | 0.0 | 0.0 | 0.00 | 0.00 | 0.00 | 74 | 1008.5 |
| 20260510002030 | 17 | 146 | 0.0 | 0.0 | 0.00 | 0.00 | 0.00 | 72 | 1008.4 |
| 20260510001530 | 18 | 146 | 0.0 | 0.0 | 0.00 | 0.00 | 0.00 | 68 | 1008.2 |
| 20260510001030 | 19 | 146 | 0.0 | 0.0 | 0.00 | 0.00 | 0.00 | 65 | 1008.2 |
| 20260510000530 | 19 | 146 | 0.0 | 8.0 | 0.00 | 0.00 | 0.00 | 63 | 1008.2 |
| 20260510000030 | 20 | 157 | 0.0 | 11.3 | 0.00 | 0.00 | 0.00 | 62 | 1008.1 |
| 20260509235529 | 20 | 150 | 3.2 | 11.3 | 0.00 | 0.00 | 0.00 | 61 | 1008.1 |
| 20260509235029 | 20 | 131 | 1.6 | 6.4 | 0.00 | 0.00 | 0.00 | 61 | 1008.1 |
| 20260509234537 | 20 | 168 | 0.0 | 1.6 | 0.00 | 0.00 | 0.00 | 61 | 1008.0 |
| 20260509234028 | 21 | 167 | 0.0 | 3.2 | 0.00 | 0.00 | 0.00 | 60 | 1008.0 |
| 20260509233528 | 21 | 158 | 0.0 | 12.9 | 0.00 | 0.00 | 0.00 | 59 | 1008.0 |
| 20260509233032 | 21 | 223 | 0.0 | 12.9 | 0.00 | 0.00 | 0.00 | 58 | 1008.0 |
| 20260509232529 | 21 | 275 | 0.0 | 11.3 | 0.00 | 0.00 | 0.00 | 58 | 1008.0 |
| 20260509232029 | 21 | 148 | 0.0 | 8.0 | 0.00 | 0.00 | 0.00 | 57 | 1008.0 |
| 20260509231532 | 22 | 178 | 0.0 | 8.0 | 0.00 | 0.00 | 0.00 | 57 | 1008.1 |
| 20260509231028 | 22 | 148 | 0.0 | 1.6 | 0.00 | 0.00 | 0.00 | 56 | 1008.0 |
| 20260509230528 | 22 | 196 | 0.0 | 4.8 | 0.00 | 0.00 | 0.00 | 57 | 1007.9 |
| 20260509230028 | 22 | 251 | 0.0 | 4.8 | 0.00 | 0.00 | 0.00 | 56 | 1007.9 |
| 20260509225528 | 22 | 316 | 0.0 | 3.2 | 0.00 | 0.00 | 0.00 | 56 | 1008.0 |
| 20260509225027 | 22 | 169 | 0.0 | 4.8 | 0.00 | 0.00 | 0.00 | 58 | 1007.9 |
| 20260509224527 | 22 | 211 | 0.0 | 4.8 | 0.00 | 0.00 | 0.00 | 55 | 1008.0 |
| 20260509224027 | 22 | 135 | 0.0 | 4.8 | 0.00 | 0.00 | 0.00 | 57 | 1007.9 |
| 20260509223526 | 21 | 134 | 0.0 | 4.8 | 0.00 | 0.00 | 0.00 | 57 | 1007.9 |
| 20260509223030 | 21 | 104 | 0.0 | 0.0 | 0.00 | 0.00 | 0.00 | 56 | 1007.9 |
| 20260509222526 | 21 | 103 | 0.0 | 1.6 | 0.00 | 0.00 | 0.00 | 58 | 1007.9 |
| 20260509222026 | 21 | 103 | 0.0 | 6.4 | 0.00 | 0.00 | 0.00 | 58 | 1007.8 |
| 20260509221526 | 22 | 179 | 0.0 | 14.5 | 0.00 | 0.00 | 0.00 | 56 | 1007.8 |
| 20260509221026 | 22 | 144 | 1.6 | 14.5 | 0.00 | 0.00 | 0.00 | 57 | 1007.8 |
| 20260509220528 | 22 | 225 | 0.0 | 6.4 | 0.00 | 0.00 | 0.00 | 56 | 1007.9 |
| 20260509220028 | 22 | 212 | 0.0 | 6.4 | 0.00 | 0.00 | 0.00 | 55 | 1007.9 |
| 20260509215523 | 22 | 244 | 1.6 | 11.3 | 0.00 | 0.00 | 0.00 | 54 | 1007.9 |
| 20260509215026 | 22 | 192 | 0.0 | 12.9 | 0.00 | 0.00 | 0.00 | 57 | 1008.1 |
| 20260509214522 | 22 | 153 | 1.6 | 12.9 | 0.00 | 0.00 | 0.00 | 55 | 1008.1 |
| 20260509214022 | 22 | 251 | 0.0 | 6.4 | 0.00 | 0.00 | 0.00 | 57 | 1008.1 |
| 20260509213522 | 22 | 233 | 1.6 | 8.0 | 0.00 | 0.00 | 0.00 | 55 | 1008.2 |
| 20260509213022 | 22 | 254 | 3.2 | 14.5 | 0.00 | 0.00 | 0.00 | 55 | 1008.2 |
| 20260509212521 | 22 | 197 | 0.0 | 14.5 | 0.00 | 0.00 | 0.00 | 55 | 1008.2 |
| 20260509212021 | 22 | 183 | 0.0 | 8.0 | 0.00 | 0.00 | 0.00 | 56 | 1008.3 |
| 20260509211521 | 22 | 164 | 0.0 | 8.0 | 0.00 | 0.00 | 0.00 | 55 | 1008.2 |
| 20260509211021 | 22 | 121 | 0.0 | 14.5 | 0.00 | 0.00 | 0.00 | 59 | 1008.2 |
| 20260509210525 | 22 | 159 | 0.0 | 14.5 | 0.00 | 0.00 | 0.00 | 58 | 1008.2 |
| 20260509210022 | 22 | 237 | 0.0 | 9.7 | 0.00 | 0.00 | 0.00 | 57 | 1008.2 |
| 20260509205520 | 22 | 94 | 0.0 | 8.0 | 0.00 | 0.00 | 0.00 | 56 | 1008.1 |
| 20260509205019 | 22 | 284 | 0.0 | 8.0 | 0.00 | 0.00 | 0.00 | 57 | 1008.0 |
| 20260509204520 | 22 | 138 | 0.0 | 6.4 | 0.00 | 0.00 | 0.00 | 63 | 1008.1 |
| 20260509204020 | 22 | 170 | 0.0 | 6.4 | 0.00 | 0.00 | 0.00 | 60 | 1008.0 |
| 20260509203517 | 22 | 219 | 0.0 | 9.7 | 0.00 | 0.00 | 0.00 | 57 | 1008.2 |
| 20260509203022 | 22 | 315 | 1.6 | 9.7 | 0.00 | 0.00 | 0.00 | 57 | 1008.2 |
| 20260509202516 | 22 | 214 | 0.0 | 8.0 | 0.00 | 0.00 | 0.00 | 59 | 1008.2 |
| 20260509202017 | 21 | 304 | 0.0 | 6.4 | 0.00 | 0.00 | 0.00 | 61 | 1008.3 |
| 20260509201515 | 21 | 198 | 0.0 | 11.3 | 0.00 | 0.00 | 0.00 | 59 | 1008.3 |
| 20260509201020 | 21 | 304 | 0.0 | 11.3 | 0.00 | 0.00 | 0.00 | 60 | 1008.2 |
| 20260509200516 | 21 | 213 | 0.0 | 8.0 | 0.00 | 0.00 | 0.00 | 59 | 1008.2 |
| 20260509200015 | 21 | 303 | 0.0 | 3.2 | 0.00 | 0.00 | 0.00 | 60 | 1008.1 |
| 20260509195515 | 21 | 179 | 0.0 | 4.8 | 0.00 | 0.00 | 0.00 | 60 | 1008.3 |
| 20260509195014 | 21 | 271 | 0.0 | 6.4 | 0.00 | 0.00 | 0.00 | 60 | 1008.1 |
| 20260509194517 | 22 | 307 | 0.0 | 12.9 | 0.00 | 0.00 | 0.00 | 57 | 1008.2 |
| 20260509194015 | 22 | 146 | 1.6 | 16.1 | 0.00 | 0.00 | 0.00 | 61 | 1008.4 |
| 20260509193515 | 22 | 300 | 1.6 | 17.7 | 0.00 | 0.00 | 0.00 | 59 | 1008.4 |
| 20260509193014 | 22 | 311 | 6.4 | 17.7 | 0.00 | 0.00 | 0.00 | 59 | 1008.4 |
| 20260509192512 | 22 | 161 | 0.0 | 12.9 | 0.00 | 0.00 | 0.00 | 58 | 1008.3 |
| 20260509192015 | 21 | 319 | 0.0 | 16.1 | 0.00 | 0.00 | 0.00 | 61 | 1008.5 |
| 20260509191516 | 21 | 303 | 1.6 | 16.1 | 0.00 | 0.00 | 0.00 | 59 | 1008.5 |
| 20260509191011 | 21 | 296 | 0.0 | 17.7 | 0.00 | 0.00 | 0.00 | 65 | 1008.5 |